Regional Weather Roundup
Issued by NWS

Home | Current Version | Previous Version | Text Only | Print | Product List | Glossary Off
Versions: 1 2 3 4 5 6 7 8 9 10 11 12 13 14 15 16 17 18 19 20 21 22 23 24 25 26 27 28 29 30 31 32 33 34 35 36 37 38 39 40 41 42 43 44 45 46 47 48 49 50

000
ASUS45 KBOU 290707
RWRCO

WEATHER ROUNDUP FOR COLORADO
NATIONAL WEATHER SERVICE DENVER/BOULDER CO
100 AM MDT FRI MAY 29 2015

NOTE: "FAIR" INDICATES FEW OR NO CLOUDS BELOW 12000 FEET WITH NO
SIGNIFICANT WEATHER AND/OR OBSTRUCTIONS TO VISIBILITY.

COZ001>005-013-030-031-290800-
...NORTHWEST COLORADO...

CITY           SKY/WX    TMP DP  RH WIND       PRES   REMARKS
CRAIG          PTCLDY    41  38  89 CALM      30.25S
HAYDEN         CLOUDY    43  37  81 SE7       30.25F
MEEKER         MOCLDY    44  39  82 E6        30.26S
MOUNT WERNER   NOT AVBL
STEAMBOAT SPGS NOT AVBL
WALDEN         NOT AVBL
$$

COZ006>008-011-290800-
...WEST CENTRAL VALLEYS...

CITY           SKY/WX    TMP DP  RH WIND       PRES   REMARKS
GRAND JUNCTION CLEAR     48  45  89 NE6       30.16S
MONTROSE       CLEAR     47  41  80 SE6       30.22S
EAGLE          PTCLDY    54  46  76 CALM      30.28R
RIFLE          PTCLDY    47  41  80 SW6       30.23R
DELTA          PTCLDY    50  43  77 NE3       30.19S
NUCLA          CLEAR     46  41  81 S3        30.23F
$$

COZ017>023-064>068-290800-
...SOUTHWEST COLORADO...

CITY           SKY/WX    TMP DP  RH WIND       PRES   REMARKS
DURANGO        CLEAR     46  38  73 CALM      30.17S
CORTEZ         CLEAR     45  40  82 E5        30.16F
PAGOSA SPRINGS CLEAR     44  35  70 CALM      30.23F
TELLURIDE      CLEAR     40  38  92 CALM      30.33F
WOLF CREEK PAS NOT AVBL
$$

COZ009-010-012-014-032>034-037-058>063-290800-
...CENTRAL COLORADO...

CITY           SKY/WX    TMP DP  RH WIND       PRES   REMARKS
ASPEN          PTCLDY    39  35  86 S3        30.27F
BUENA VISTA    PTCLDY    40  34  78 W9        30.27F
COPPER MTN     NOT AVBL
BERTHOUD PASS  NOT AVBL
COTTONWOOD PAS NOT AVBL
GUNNISON       PTCLDY    39  34  81 CALM      30.31S
KREMMLING      NOT AVBL
LEADVILLE      PTCLDY    36  29  75 N10       30.32F
SALIDA         PTCLDY    44  36  72 W6        30.33S
SUNLIGHT       NOT AVBL
WILKERSON PASS NOT AVBL
$$

COZ069>075-290800-
...SAN LUIS VALLEY/SANGRE DE CRISTO MOUNTAINS...

CITY           SKY/WX    TMP DP  RH WIND       PRES   REMARKS
ALAMOSA        CLOUDY    49  34  56 N8        30.24S
LA VETA PASS   NOT AVBL
SAGUACHE       NOT AVBL
$$

COZ035-036-038>040-290800-
...NORTHERN COLORADO FRONT RANGE...

CITY           SKY/WX    TMP DP  RH WIND       PRES   REMARKS
DENVER INTL AP MOCLDY    53  47  79 E7        30.14S
DMNS CITY PARK   N/A     53  46  78 S5        30.13F
AURORA         MOCLDY    49  46  90 S8        30.15F
FRONT RANGE AP NOT AVBL
ERIE MUNI ARPT NOT AVBL
BOULDER MUN AP NOT AVBL
CENTENNIAL     MOCLDY    47  44  90 SE7       30.16S
BROOMFIELD     NOT AVBL
FORT COLLINS   MOCLDY    55  48  76 NE7       30.14S
LONGMONT       NOT AVBL
$$

COZ041-046-047-076>085-087-088-290800-
...PIKES PEAK/PALMER DIVIDE AND SOUTHERN FOOTHILLS...

CITY           SKY/WX    TMP DP  RH WIND       PRES   REMARKS
COLO. SPRINGS  MOCLDY    51  44  77 NW6       30.18F
A. F. ACADEMY  MOCLDY    47  47  98 N7        30.19S
ELLICOTT       MOCLDY   N/A N/A N/A CALM      30.16S
FALCON         NOT AVBL
FORT CARSON    PTCLDY    50  45  83 N7        30.15S
LIMON          MOCLDY    49  47  93 N9        30.13F
MONUMENT HILL  NOT AVBL
TRINIDAD       CLEAR     51  47  86 NW3       30.15R
$$

COZ042>045-048>051-090-091-290800-
...NORTHEAST COLORADO...

CITY           SKY/WX    TMP DP  RH WIND       PRES   REMARKS
GREELEY ARPT   CLOUDY    57  45  62 N12       30.13S
AKRON          CLOUDY    52  50  93 NW13G22   30.10R
BURLINGTON     MOCLDY    54  50  86 SW6       30.07S
WRAY           CLOUDY    56  53  87 W3        30.05R
STERLING       NOT AVBL
HOLYOKE        NOT AVBL
FORT MORGAN    LGT RAIN  53  49  87 CALM      30.13R
$$

COZ086-089-092>099-290800-
...SOUTHEAST COLORADO...

CITY           SKY/WX    TMP DP  RH WIND       PRES   REMARKS
PUEBLO         CLEAR     53  49  86 N3        30.12R
LA JUNTA       MOCLDY    60  51  72 N13       30.09R
LAMAR          MOCLDY    54  51  90 CALM      30.05F
SPRINGFIELD      N/A     51  50  96 N7        30.07F
$$


USA.gov is the U.S. government's official web portal to all federal, state and local government web resources and services.